Zoom Through the Zoo 5K

Greenville, SC

Overall 5K

5th ZOOM THROUGH THE ZOO 5K May 12, 2018 Greenville, SC
USATF certified course# SC18025DW Timed by SVE Timing East
Complete Results
RankBibNameGun TimeChip ElapsedPaceGenAgeDivisionTeamCity- St
1754DANIEL SMOAK 17:20 17:2005:35M295KMILLIKENGREENVILLE, SC
2569MICHAEL ASIRE 18:00 17:5805:48M315KBOB JONES UNIVERSITYGREENVILLE, SC
31297MATT WILLIAMSON 18:26 18:2505:56M265KGREENVILLE, SC
4800SEAN FLANAGAN 19:16 19:1606:12M295KSRHSGREER, SC
5552DANIEL PEACE 19:28 19:2706:16M425KBMWSIMPSONVILLE, SC
6923ZACKERY CARVER 19:51 19:5006:24M145KANDERSON, SC
71193AMBER REECE-YOUNG 19:55 19:5306:25F395KASHEVILLE, NC
81343CHRISTOPHER FERLAND 19:56 19:5306:25M485KTRAVELERS REST
91433ANDY WALLS 20:08 20:0606:29M305KBMWANDERSON, SC
10863DEVON BEESLEY 20:10 20:0806:30M205KGREER, SC
111397BENNETT LAMB 20:10 20:0706:30M145KGEGREENVILLE, SC
12717BOB SEEDLOCK 20:14 20:1306:31M505KMICHELINSIMPSONVILLE, SC
13536JAN HOFMANN 20:18 20:1706:32M265KBMWGREENVILLE, SC
141369DIRK FLEISCHER 20:42 20:4106:40M545KBMWSIMPSONVILLE, SC
15748PATRICK PETRI 20:47 20:4406:42M395KMILLIKENSIMPSONVILLE, SC
161203SCOTT RYERSON 21:03 20:5906:47M435KGREENVILLE, SC
17510ALAN BLACKWELL 21:04 21:0306:47M625KBMWMOORE, SC
181406SCOTT BLACKWELL 21:07 21:0506:48M425KGEGREER, SC
19759GEORGE SYKES 21:07 21:0606:48M615KMILLIKENSPARTANBURG, SC
20632DAVID KAJDI 21:12 21:0906:50M465KGETAYLORS, SC
211368JEANNETTE RAUTENBACH 21:16 21:1306:51F525KBMWSIMPSONVILLE, SC
221422MATTHEW SEKURAS 21:20 20:5806:52M285KTAYLORS, SC
231396BRYAN LAMB 21:20 21:1706:52M455KGEGREENVILLE, SC
24829TONY SORRELLS 21:21 21:1906:53M575KTTIPICKENS, SC
25894DAVID BRANAN 21:25 21:2306:54M145KGREENVILLE, SC
262852DAVID PAYAN 21:30 21:2506:56M135KKEMETSIMPSONVILLE, SC
27568NICHOLAS YONKIN 21:33 21:3106:57M145KBMWGREER, SC
28564MARKUS WIMMER 21:33 21:2906:57M545KBMWGREER, SC
291463BRYAN GUTIERREZ 21:40 21:2206:59M135K
30826CONOR MCMANAMON 21:41 21:3506:59M235KTTIEASLEY, SC
31706DAVID CARPENTER 21:46 21:3707:01M405KMICHELINPIEDMONT, SC
32534BETTINA GUECKER 21:58 21:5307:05F505KBMWSIMPSONVILLE, SC
331388TRENT DINGMAN 22:11 22:0607:09M225KTTIGREENVILLE, SC
34575ADAM CAMPBELL 22:16 22:0107:10M325KCENTURY 3WOODRUFF, SC
351254DEBBY TINDALL-COMBS 22:37 22:3307:17F465KEASLEY, SC
361329BRADFORD FOULKES 22:40 22:2907:18M395KGEGREENVILLE, SC
371318DUSTIN DELL 22:40 22:3107:18M315KAFLDUNCAN, SC
38913CHRIS CAMPBELL 22:45 22:3607:20M315KMOORE, SC
391320ALEX BORGES 22:45 22:4107:20M335KGEGREENVILLE, SC
40678BRIAN BARNHART 22:52 22:3907:22M435KJTEKT NORTH AMERICAGREENVILLE, SC
41535DAVY HARTSELL 22:56 22:5407:23M455KBMWSPARTANBURG, SC
421240CHRIS TEMPLES 22:58 22:5007:24M335KPIEDMONT, SC
43738LUKE KOCHANOWICZ 22:59 22:5507:24M135KMILLIKENSPARTANBURG, SC
441416CHARLES SMOGOLESKI 23:00 22:5707:25M325KSIMPSONVILLE, SC
45812ROBERT DONOVAN 23:01 22:2307:25M265KSYNTERRA CORPORATIONGREENVILLE, SC
46508STEFAN BARTH 23:02 22:0807:25M295KBMWGREER, SC
47588CAROLINE SWIGER 23:11 23:0707:28F315KCRAIG GAULDEN DAVISGREENVILLE, SC
48576ROB FLYNN 23:12 22:5507:29M325KCENTURY 3GREER, SC
49763BERNARD VERMEERSCH 23:14 23:1307:29M515KMILLIKENGREENVILLE, SC
50761BETH TRENOR 23:34 23:2307:36F335KMILLIKENGREENVILLE, SC
51679JOHN DRISCOLL 23:43 23:3107:39M285KJTEKT NORTH AMERICAARCADIA, SC
52712DAVID MAINKA 23:47 23:2707:40M475KMICHELINGREER, SC
531044EMMA HOSKINS 23:49 23:4507:40F105KSIMPSONVILLE, SC
541141LUC MORAND 23:49 23:4407:40M495KSPARTANBURG, SC
55988MATTHEW GARRETT 24:01 23:2807:44M155KWAXHAW, NC
561125JULIAN MEDINA 24:08 24:0607:47M95KFOUNTAIN INN, SC
57505GREG KELLER 24:09 23:5907:47M465KAFLGREER, SC
581270JUDY WALLS 24:12 24:0907:48F595KPIEDMONT, SC
59961GRANT DUNHAM 24:13 24:0607:48M145KTAYLORS, SC
60767TOMMY YOUNG 24:17 24:0807:50M395KMILLIKENSIMPSONVILLE, SC
61672CRAIG BAILEY 24:19 24:1407:50M535KJOY REAL ESTATEGREENVILLE, SC
62506CLAIRE VERRETT 24:26 24:2107:52F125KAFLDUNCAN, SC
63650HAIPING WANG 24:26 24:1907:52M615KGEGREENVILLE, SC
641491ELEANOR ROGERS 24:27 24:0607:53F285K
65861VINCE BECHTEL 24:28 23:1507:53M355KGREER, SC
66699ANDREW WILLS 24:30 24:1507:54M455KKEMETSIMPSONVILLE, SC
671462MOSES GUTIERREZ 24:30 24:1207:54M105K
68542EDWAR LARA 24:32 24:2307:54M525KBMWGREENVILLE, SC
69992STEPHANIE GATES 24:32 24:2607:54F345KGREENVILLE, SC
70862JEAN BECKWITH 24:34 24:2107:55F335KSEATTLE, WA
71710JIM FORTNER 24:39 24:3107:57M615KMICHELINGREENVILLE, SC
72770CASEY CLINE 24:39 24:3507:57M515KRIETERSPARTANBURG, SC
731054JULIE ISRAEL 24:41 24:0207:57F425KGREENVILLE, SC
74626MANUEL CARDENAS 24:41 24:2107:57M605KGESIMPSONVILLE, SC
75962JENNIFER DUNLAP 24:44 24:3507:58F375KNEWPORT NEWS, VA
761372KRISTEN NOWACKI 24:44 23:1507:58F325KPIEDMONT, SC
77878LYON BIXLER 24:45 24:3507:59M375KSIMPSONVILLE, SC
78780SCOTT DEMUTH 24:48 24:3508:00M445KSCANSOURCEGREENVILLE, SC
79723TYLER BLOUSE 24:50 24:2908:00M415KMILLIKENSPARTANBURG, SC
80870BENNY BENTLEY 24:50 24:4408:00M525KLYMAN, SC
81714ISABELLE MCDONALD 24:55 24:4108:02F375KMICHELINEASLEY, SC
82573RYAN ACIERNO 24:56 24:1708:02M335KCENTURY 3GREER, SC
83562DAN WATTERS 24:57 24:4808:02M565KBMWGREER, SC
84549ROBERT MORSE 24:57 24:5008:02M545KBMWSIMPSONVILLE, SC
851398BRENDAN LOPES 24:58 24:3508:03M285KGREENVILLE, SC
861409JOSH LOPES 24:58 24:3508:03M285KGREENVILLE, SC
87924FERNANDO CASANOVA 24:59 24:4508:03M535KSIMPSONVILLE, SC
88932TOM COMBS 24:59 24:5508:03M515KEASLEY, SC
89803LIZZIE MCCALLION 24:59 24:5408:03F205KSRHSGREER, SC
90643JEFF SEGARS 25:00 24:5008:03M515KGEPIEDMONT, SC
91954FRED DIMITREW 25:05 24:5708:05M605KGREENVILLE, SC
921016ROSALIND HAMMOND 25:05 25:0008:05F305KGREENVILLE, SC
931326JACKIE MINCEY 25:09 24:0308:06M295KAVXGREENVILLE, SC
94867DAVID BENDIG 25:09 24:5708:06M515KGREENVILLE, SC
95854EASTON BARAJAS 25:10 24:5208:07M125KSIMPSONVILLE, SC
961053JAY ISRAEL 25:13 24:3508:08M135KGREENVILLE, SC
97869ROSS BENNETT 25:20 25:1208:10M635KASHEVILLE, NC
98641CHUCK NYBERG 25:22 24:4008:10M565KGEGREENVILLE, SC
99792CANDACE MARTIN 25:22 25:1608:10F265KSCANSOURCETRAVELERS REST
100718ANNELIES VAN HECKE 25:23 24:4608:11F325KMICHELINGREER, SC
1011332AUSTIN HAMBY 25:27 24:3608:12M135KGREENVILLE, SC
102623JIM ROBERTS 25:28 25:2008:12M665KFLUORGREENVILLE, SC
103637ERIN KRUMENACKER 25:31 25:2608:13F255KGEGREER, SC
104855EVERETT BARAJAS 25:41 25:2208:17M95KSIMPSONVILLE, SC
105853DANIEL BARAJAS 25:41 25:2208:17M395KSIMPSONVILLE, SC
106902JAIME BROWN 25:42 25:3108:17F325KINMAN, SC
107687IAIN KINNON 25:43 25:2808:17M475KKEMETSIMPSONVILLE, SC
108642SARAH SCHOONOVER 25:43 25:3208:17F385KGEGREENVILLE, SC
109801ERIN MCCALLION 25:46 25:3908:18F125KSRHSGREER, SC
1101171AUSTEN PICKHARDT 25:46 25:2308:18F325KGREENVILLE, SC
111804PAT MCCALLION 25:46 25:4008:18M495KSRHSGREER, SC
1121040JACKSON HOLT 25:47 25:3908:19M265KGREENVILLE, SC
113648MINHAJ SYED 25:49 25:3208:19M455KGEGREER, SC
1141214JASON SIZEMORE 25:52 25:4208:20M415KGREENVILLE, SC
1151431STEVE CRENSHAW 25:54 24:3508:21M455KSIMPSONVILLE, SC
1161349JARED PIENKOS 25:55 25:3908:21M315KFAIR HAVEN, NJ
117639JONATHAN MOODY 26:01 25:3908:23M405KGEEASLEY, SC
118845BRIAN AMELING 26:02 25:2908:23M425KGREENVILLE, SC
1191035MICHAEL HODGE 26:04 25:5208:24M425KGREENVILLE, SC
120821JAMEY GRAY 26:06 25:5608:25M525KTTISTARR, SC
121649RON THOMPSON 26:09 26:0108:26M605KGESIMPSONVILLE, SC
1221407LYNDSAY KIBLER 26:09 25:5808:26F265KGETAYLORS, SC
123882MARION BOATWRIGHT 26:10 26:0008:26M655KBREVARD, NC
124964MATTHEW EDWARDS 26:18 25:3608:29M385KGREENVILLE, SC
1251150TAYLOR NANNEY 26:24 26:0808:30M265KGREER, SC
126519MATT ELLISON 26:25 26:1508:31M335KBMWGREENVILLE, SC
1271417MARIE SMOGOLESKI 26:27 26:2408:31F315KSIMPSONVILLE, SC
1281013DANIEL GUSTER 26:29 26:1808:32M325KGREENVILLE, SC
1292854DANIEL PAYAN 26:29 26:0908:32M105KKEMETSIMPSONVILLE, SC
1301405LESLIE SPEARMAN 26:29 25:4808:32F265KEASLEY, SC
131681KEITH BROWN 26:33 26:1708:33M615KKEMETSIMPSONVILLE, SC
1321129NIKKI MILLER 26:35 26:2908:34F315KGREER, SC
1332855HYRAM PAYAN 26:36 26:2908:34M385KKEMETSIMPSONVILLE, SC
134822BRENT GREGORICH 26:36 26:1908:34M325KTTIEASLEY, SC
1351376MARKUS WELLS 26:37 26:1508:35M485KBMWGREER, SC
136997JAY GIBSON 26:38 25:3008:35M555KGREENVILLE, SC
1371139LINNY MOORE 26:39 26:0008:35M715KGREER, SC
138571NATHAN WILLIAMS 26:42 26:1908:36M405KBOB JONES UNIVERSITYGREENVILLE, SC
1391432BONNIE WALLS 26:43 26:4008:37F245KANDERSON, SC
1401366JOANNA PACE 26:44 26:2908:37F305KCANTON, NC
1411418ERIC ABED 26:47 25:1008:38M405KBMWGREENVILLE, SC
142726JOSHUA CHILD 26:48 25:3608:38M135KMILLIKENMOORE, SC
1431456KEVIN ESCORZA 26:53 26:3408:40M105K
1441370STEVE SNODGRASS 26:55 26:4108:40M395KGHSGREER, SC
145896SARAH BRICK 26:55 25:1808:40F425KANDERSON, SC
146725DREW CHILD 26:56 25:4408:41M535KMILLIKENMOORE, SC
147736CHRIS KOCHANOWICZ 27:03 26:5308:43M535KMILLIKENSPARTANBURG, SC
148727KATHRYN CHILD 27:05 25:5408:44F155KMILLIKENMOORE, SC
1491344DENISE BRYSON 27:09 26:4508:45F475KTRAVELERS REST
1501208LARA SHAW 27:09 26:2608:45F455KGREENVILLE, SC
151856BRIAN BARRY 27:10 25:5708:45M295KGREENVILLE, SC
1521066WHITNEY JONES 27:10 25:5708:45F275KGREENVILLE, SC
153825DAVID HICKS 27:12 26:5508:46M605KTTITRAVELERS REST
1541338DANNY LEFITZ 27:13 26:3408:46M565KGEGREENVILLE, SC
1551174AUSTIN PITTARD 27:14 27:0508:47M285KEASLEY, SC
1561234LINDSAY STUTZMAN 27:14 26:3408:47F335KGREENVILLE, SC
1571210PAM SHILLINGBURG 27:15 27:0908:47F485KDUNCAN, SC
1581058KENT JESPERSEN 27:25 27:0908:50M625KGREER, SC
1591172RYAN PICKHARDT 27:29 27:0508:51M335KGREENVILLE, SC
1601204AMIR SADRI 27:31 26:2408:52M375KPIEDMONT, SC
161721JIM BATTOCCHIO 27:40 27:1508:55M505KMILLIKENSIMPSONVILLE, SC
1621296SAMANTHA WILLIAMS 27:40 27:2208:55F275KHENDERSONVILLE
163567CHRISTOPHER YONKIN 27:40 27:3908:55M165KBMWGREER, SC
164524ETHAN FLECK 27:43 26:4408:56M355KBMWGREENVILLE, SC
1651294NATHAN WILLIAMS 27:43 27:2408:56M315KHENDERSONVILLE
1661140TYLER MOORE 27:44 27:0508:56M415KTAYLORS, SC
167890OLIVIA BOUTS 27:44 27:1408:56F145KGREER, SC
1681117ROBERT MCKENZIE 27:45 27:3108:57M365KSIMPSONVILLE, SC
169555JEFFREY RYAN 27:46 27:2308:57M625KBMWLYMAN, SC
170778COURTNEY COX 27:47 27:2508:57F275KSCANSOURCEGREENVILLE, SC
1711289ZOE WHITE 27:47 27:1608:57F155KGREER, SC
1721253MARIAH TILLMAN 27:48 26:1308:58F185KSIMPSONVILLE, SC
173952FRANK DICKENS 27:50 27:4008:58M495KSIMPSONVILLE, SC
1741095ANDY LE 27:56 27:0409:00M185KTAYLORS, SC
1751081JIM KIRTZ 27:57 27:1509:00M575KSIMPSONVILLE, SC
1761411STEVE THOMAS 27:57 27:2209:00M285KSIMPSONVILLE, SC
177685JEFF FREYERMUTH 28:00 27:0509:01M275KKEMETGREENVILLE, SC
178742JESUS MEDINA 28:04 26:5209:03M535KMILLIKENGREER, SC
179541ANNA LARA 28:08 27:3309:04F515KBMWGREENVILLE, SC
1801389TOM WILSON 28:08 27:5309:04M685KSEALED AIRGREENVILLE, SC
1811215AMY SMITH 28:10 27:5409:05F285KGREENVILLE, SC
182985DREW GARRETT 28:10 27:3809:05M145KWAXHAW, NC
183927WENDI CHURCH 28:13 27:2009:06F415KGAFFNEY, SC
184517SARAH COX 28:14 27:4609:06F305KBMWANDERSON, SC
185638TED MAJKA 28:17 28:0609:07M495KGESIMPSONVILLE, SC
1861421ABRAM BURROUGHS 28:17 28:1109:07M85KHARTWELL, GA
187625MAC APPADURAI 28:18 28:1209:07M495KGEGREER, SC
188538ANNE KELLEY 28:20 27:5109:08F495KBMWMOORE, SC
1891317KRISTEN MILLER 28:24 28:0709:09F345KSIMPSONVILLE, SC
1901045KELI HOSKINS 28:24 28:1109:09F405KSIMPSONVILLE, SC
191566AUSTIN YONKIN 28:24 28:2209:09M115KBMWGREER, SC
1921064JARED JONES 28:27 27:3009:10M365KGREENVILLE, SC
1931001HUNTER GOSSETT 28:28 27:2509:10M265KCONCORD, NC
194816WILLIAM ROWAN 28:28 26:3509:10M435KTEAM RWBHOPKINS, SC
195713ELISE MAINKA 28:39 28:1909:14F175KMICHELINGREER, SC
1961323KAITLIN SWEARINGTON 28:39 27:5109:14F235KGREENVILLE, SC
197560HARVEY VILLANUEVA 28:42 28:3809:15M145KBMWSIMPSONVILLE, SC
198622JAMES HORNE 28:43 28:1509:15M705KFLUORGREENVILLE, SC
199795DOUG ROGIER 28:43 28:1109:15M435KSCANSOURCEGREENVILLE, SC
200595CHAD ELLIOTT 28:45 28:1009:16M435KCRSHENDERSONVILLE
201760CARLY TEBBETTS 28:47 27:1709:17F445KMILLIKENGREENVILLE, SC
2021154BRANDON NORVELLE 28:51 28:2909:18M305KSIMPSONVILLE, SC
2031269MEGAN WALLER 28:52 28:2209:18F245KGREENVILLE, SC
2041216CLARKE SMITH 28:54 27:5209:19M365KSIMPSONVILLE, SC
205707ROBBIE CHAMPAGNE 28:56 27:3609:20M235KMICHELINGREENVILLE, SC
2061067MICHAEL JOS 28:56 28:5209:20M495KGREENVILLE, SC
207630JOHN EASTMAN 29:00 28:3709:21M565KGEGREENVILLE, SC
2081046NATHAN HOSTETLER 29:00 28:4509:21M295KDONALDS, SC
2091149KACEY NANNEY 29:04 28:4809:22F235KGREER, SC
2101148PATTY MURTON 29:05 29:0109:22F635KNAPLES, FL
2111347MICHELLE HUDSON 29:06 28:5109:23F265KTTIGREENVILLE, SC
212518KYLE DOERING 29:07 28:0109:23M315KBMWGREENVILLE, SC
213719CAROLINE VARGAS 29:08 29:0009:23F235KMICHELINGREENVILLE, SC
2141306DOUG WINESETT 29:12 27:0209:25M295KSIMPSONVILLE, SC
215824KATHERINE HELF 29:12 29:0109:25F305KTTIGREENVILLE, SC
2161009SALLY GREGG 29:15 27:0309:26F375KGREER, SC
217953CAROL DIETRICH 29:16 29:0409:26F595KGREENVILLE, SC
2181039DANI HOLT 29:18 29:0309:27F245KGREENVILLE, SC
2191017CLAY HARDISTY 29:19 27:4609:27M305KSENECA, SC
2201078DANIEL KING 29:20 27:4709:27M115KPIEDMONT, SC
221874MARY BIEBEL 29:21 29:1709:28F655KGREENVILLE, SC
2221124JAYDEN MEDINA 29:22 29:2109:28M75KFOUNTAIN INN, SC
2231424AKIRA OGAWA 29:32 28:4209:31M115KMICHELINEASLEY, SC
2241043DEVON HORINE 29:37 29:1409:33F235KGREENVILLE, SC
225881HIL BLAZE 29:37 29:1509:33M235KGREENVILLE, SC
2261049MELISSA HUNTER 29:38 29:0009:33F295KCARRBORO, NC
2271423CONNOR MCMILLAN 29:39 28:4809:33M95KMICHELINLIBERTY, SC
2281472NICO KERLEY 29:47 29:1709:36M115K
2291243KELLY TESSITORE 29:48 28:5009:36F255KCHARLOTTE, NC
2301395BETH COLLINS 29:51 29:3309:37F515KANDERSON, SC
2311413REBECCA BANKS 29:52 29:2409:38F285KWOODRUFF, SC
2321003KASIE GRANNER 29:54 29:3009:38F275KSIMPSONVILLE, SC
233857DARYL BAUGHMAN 29:55 28:1009:39F305KGREENVILLE, SC
234682DANIEL CHADWICK 29:56 29:0309:39M235KKEMETGREENVILLE, SC
235684REBECCA DOYLE 29:57 29:0409:39F245KKEMETGREENVILLE, SC
2361350CRAIG BUSBY 29:57 29:0309:39M495KKEMETEASLEY, SC
2371352JIM PILLER 29:57 29:0209:39M485KKEMETSIMPSONVILLE, SC
238784COTY GILLESPIE 29:58 29:4309:40F195KSCANSOURCESIMPSONVILLE, SC
2391118RONNIE MCKITTRICK 30:00 29:4009:40M425KGEPIEDMONT, SC
2401143AUSTIN MORTON 30:06 29:5709:42M135KSIMPSONVILLE, SC
2411374SCOTT GOULD 30:07 28:4109:42M565KJTEKT NORTH AMERICASIMPSONVILLE, SC
2421361KATIE MAXWELL 30:10 29:4509:43F315KGREER, SC
2431025BLAKE HEATLEY 30:11 29:1609:44M95KGREENVILLE, SC
2441027LAURA HEATLEY 30:11 29:1709:44F375KGREENVILLE, SC
2451113LAURA MARTIN 30:18 29:2509:46F335KGREENVILLE, SC
2461309JULIA WITBECK 30:20 29:0409:47F145KSIMPSONVILLE, SC
247739STACIE LEE 30:21 28:5109:47F335KMILLIKENGREENVILLE, SC
2481414MATTHEW FOWLER 30:22 29:4609:47M335KBOILING SPRINGS
2491390MICHELLE MCDONOUGH 30:22 29:3709:47F325KGREENVILLE, SC
2501291TINA WILBANKS 30:24 28:3809:48F555KGREER, SC
251976TIM FREY 30:26 28:4109:49M295KGREENVILLE, SC
252998LAURA GILDERSLEEVE 30:31 28:4609:50F365KGREENVILLE, SC
2531247DON THOMAS 30:32 30:2509:50M595KGREENVILLE, SC
2541000KATELYN GORETZKE 30:33 29:5209:51F255KGREENVILLE, SC
255756JIM STAVRAKAS 30:33 29:0509:51M575KMILLIKENGREENVILLEGREENVILLE
2561483CLEVE OLIPHANT 30:36 29:4809:52M575K
257574MIKE BEESON 30:37 29:3109:52M615KCENTURY 3GREER, SC
258809PEGGY ALTMAN 30:37 28:4009:52F345KSYNTERRA CORPORATIONGREENVILLE, SC
259663KATIE HOWLE 30:37 29:5009:52F395KGHSGREER, SC
260671ANITA DRUM 30:38 29:4009:52F465KGREENVILLE COUNTY SCHOOLSGREENVILLE, SC
2611236BENJAMIN TABER 30:40 30:1809:53M135KGREENVILLE, SC
262529LEMUEL FULLER 30:40 29:2009:53M335KBMWMAULDIN, SC
2631055MOLLY JANTZ 30:40 30:0809:53F335KTAYLORS, SC
2641355EVAN SCOGINS 30:41 30:3309:53M135KWILLIAMSTON, SC
2651219HILLARY SMITH 30:41 30:0909:53F255KTAYLORS, SC
2661163DEAN PARSONS 30:42 30:2809:54M385KSIMPSONVILLE, SC
267991NICK GATES 30:43 29:0009:54M355KGREENVILLE, SC
268783ANDREW GILLESPIE 30:44 30:0809:54M425KSCANSOURCESIMPSONVILLE, SC
2691168MICHAEL PERMANENTE 30:44 30:2309:54M135KGREER, SC
270785WESLEY GILLESPIE 30:44 30:0709:54M85KSCANSOURCESIMPSONVILLE, SC
271570LANEITA BRUNDAGE 30:47 30:2609:55F595KBOB JONES UNIVERSITYTRAVELERS RESTTRAVELERS
2721098LUCIA LEOS 30:48 30:4809:56F275KGREENVILLE, SC
273728CHARLES CROWELL 30:56 30:1409:58M345KMILLIKENGREER, SC
2741455GERALD DANIEL 31:01 30:1810:00M105K
275698RICHARD TURNER 31:05 30:0610:01M515KKEMETSIMPSONVILLE, SC
276550CHRIS MURRAY 31:07 30:1610:02M305KBMWGREENVILLE, SC
277787GARRETT GREER 31:07 30:5410:02M105KSCANSOURCEGREENVILLE, SC
278667KRYSTAL MILLER 31:09 30:5110:02F315KGHSGREENVILLE, SC
2791477JENNIFER LOFTIS 31:09 30:4110:02F305K
2801299DEBBIE WILSON 31:09 30:4410:02F545KTAYLORS, SC
2811454MAKAILYN DANIEL 31:10 30:4110:03F95K
2821268JANAY WALKER 31:11 29:0410:03F385KINDIAN TRAIL, NC
2831052JOEL IRVINE 31:11 30:5310:03M305KGREENVILLE, SC
2841307BILLY WITBECK 31:12 29:5610:03M465KSIMPSONVILLE, SC
2851024ROBBIN HAYNES 31:13 30:1310:04F555KSHELBY, NC
286720NANCY ANDERSON 31:14 30:3610:04F675KMILLIKENSPARTANBURG, SC
2871152ALLISON NEUMANN 31:16 30:4810:05F385KHARVEST, AL
2881319ALLISON GERRALD 31:18 29:0810:05F365KGREER, SC
289866BRADY BENDIG 31:20 31:0810:06M145KGREENVILLE, SC
290948JONAH DAVIDSON 31:20 30:0110:06M105KGREER, SC
291532TIFFANY GORSETH 31:21 30:4710:06F395KBMWGREER, SC
292640LYNN NAPARTY 31:27 31:1310:08F545KGESIMPSONVILLE, SC
293817EMILY GLADDEN 31:27 29:1810:08F275KTHE THREE E'SEASLEY, SC
294789JESSICA GREER 31:30 31:1710:09F395KSCANSOURCEGREENVILLE, SC
295827JOHN OLSON 31:34 31:0810:10M345KTTISIMPSONVILLE, SC
2961341BEN MASTROPIETRO 31:35 31:1610:11M115KFLETCHER, NC
2971339KEVIN GEISER 31:39 31:1810:12M385KBMWFLETCHER, NC
298614CAROLINE WILLIAMSON 31:42 31:0510:13F595KDAY & ZIMMERMANNGREENVILLE, SC
2991375OLIVIA GOULD 31:42 30:1610:13F235KJTEKT NORTH AMERICASIMPSONVILLE, SC
300615FRANK WILLIAMSON 31:47 31:1110:15M545KDAY & ZIMMERMANNGREENVILLE, SC
301609BRUCE RICHARDSON 31:53 31:3710:17M565KDAY & ZIMMERMANNMAULDIN, SC
302950CHELSEA DEAN 31:53 30:4410:17F265KSPARTANBURG, SC
303928DAVID CIFUENTES 31:53 30:4410:17M275KSPARTANBURG, SC
3041051ANGELIKA IMPEDUGLIA-GIELOW 31:56 30:5910:18F495KSIMPSONVILLE, SC
3051119JIM MCMANAMON 31:57 31:4210:18M595KEDGEWATER, MD
3061408LEAH LOPES 31:58 31:3410:18F295KGREENVILLE, SC
3071077CALEB KING 31:58 30:2510:18M145KPIEDMONT, SC
3081324CHARLES SWEARINGTON 31:58 31:1110:18M245KGREENVILLE, SC
3091345CAMILLE PITTARD 32:00 29:2110:19F325KGEEASLEY, SC
3101346DOUG PITTARD 32:01 29:2110:19M345KGEEASLEY, SC
3112853JACOB PAYAN 32:04 31:3710:20M85KKEMETSIMPSONVILLE, SC
3121292ERIN WILKINS 32:04 31:3310:20F245KGREENVILLE, SC
3131011WENDY GRIFFIN 32:05 31:2410:20F595KSIMPSONVILLE, SC
314764DALE WIIK 32:09 31:1810:22M495KMILLIKENGREENVILLE, SC
315578BRETT ROBBINS 32:14 31:0810:23M355KCENTURY 3GREER, SC
316695STEPHEN SAWYER 32:15 31:1410:24M485KKEMETSIMPSONVILLE, SC
317647LAURA SUPRA 32:15 31:1810:24F495KGESIMPSONVILLE, SC
318779HASSIE DEMUTH 32:16 30:5510:24F455KSCANSOURCEGREENVILLE, SC
3191351JONATHAN HAMMOND 32:17 30:5910:24M355KGREENVILLE, SC
320711ELIZABETH HOTALING 32:21 30:0910:26F365KMICHELINGREENVILLE, SC
3211038SHAYLA HOFF 32:21 31:1810:26F235KFOUNTAIN INN, SC
3221237CHRISTOPHER TABER 32:21 32:0010:26M415KGREENVILLE, SC
323708BRAD CLINE 32:21 30:1010:26M345KMICHELINGREENVILLE, SC
324628CHRIS DAVIDSON 32:22 30:5910:26M455KGEGREER, SC
325644LINDA SNOW-MOORS 32:26 31:2310:27F475KGESIMPSONVILLE, SC
3261226BENJAMIN SORIANO 32:26 31:1510:27M125KCENTRAL, SC
3271367TIM CLARK 32:27 31:0310:28M475KBMWINMAN, SC
328551MIKE NOCITO 32:29 31:5810:28M625KBMWGREER, SC
3291373TIMOTHY NOWACKI 32:30 30:5310:29M365KPIEDMONT, SC
3301157MEREDITH O'MALLEY 32:33 32:2310:30F285KEASLEY, SC
3311047MEGHAN HUDAK 32:33 31:5610:30F265KGREENVILLE, SC
3321443MICHAEL APOLONIO-ACOSTA 32:33 32:0410:30M135K
3331481AY'ANNA MILES 32:35 31:4510:30F105K
334530JENNIFER GAULT 32:38 30:5210:31F425KBMWGREER, SC
3351466JOANA JASSO 32:39 32:0610:31F115K
3361468SARAH JONES 32:40 32:0610:32F265K
337996AARON GENTRY 32:46 32:2110:34M335KGREENVILLE, SC
338694RILEIGH SAWYER 32:47 31:4610:34F155KKEMETSIMPSONVILLE, SC
3391082JUSTIN KIRTZ 32:49 32:0410:35M315KGREER, SC
340860MELANIE BEARDEN 32:49 31:1810:35F535KFOUNTAIN INN, SC
341512ANTHONY BROWN 32:52 32:2510:36M465KBMWSIMPSONVILLE, SC
3421211BEVERLY SIMPSON 32:55 30:5910:37F285KBELTON, SC
343700MIA WILLS 32:55 31:4510:37F135KKEMETSIMPSONVILLE, SC
3441192SHELLY RAYNES 32:56 32:4210:37F505KSIMPSONVILLE, SC
345701REYN WILLS 32:56 31:4510:37F165KKEMETSIMPSONVILLE, SC
346828TRISHA RUSSELL 33:02 32:3910:39F365KTTIEASLEY, SC
347974ROBERT FERGUSON 33:06 31:2810:40M525KTAYLORS, SC
348613REBEKAH THOMASON 33:07 32:4210:40F295KDAY & ZIMMERMANNSIMPSONVILLE, SC
349777CLAIRE COX 33:08 31:3710:41F585KSCANSOURCEGREER, SC
3501365NICOLE OLSON 33:09 32:3710:41F425KREDWOOD CITY, CA
3511090DAVE LAPAGE 33:11 31:2710:42M385KGREENVILLE, SC
3521120SHANE MCTAGGART 33:12 30:1710:42M395KSIMPSONVILLE, SC
3531275SHEA WASHINGTON 33:18 32:1110:44F255KCOLUMBUS, GA
354922LEAH CARVER 33:18 32:1010:44F285KGREENVILLE, SC
3551114KATELIN MASTERSON 33:18 32:1010:44F265KCOLUMBUS, GA
3561132AARON MITCHELL 33:21 32:3310:45M335KDALLAS, GA
357545JENNY TROTTER 33:23 30:5310:46F275KBMWGREENVILLE, SC
3581286MALLORY WHITE 33:23 32:2810:46F325KSIMPSONVILLE, SC
3591235ANQUAIN SULLIVAN 33:26 31:1310:47M405KSIMPSONVILLE, SC
3601401NICK VERDIN 33:26 32:1310:47M135KGEGRAY COURT, SC
3611392SARA WALLACE 33:26 31:2810:47F85KGREENVILLE, SC
3621331BRIAN HAMBY 33:27 31:2710:47M435KGREENVILLE, SC
3631333CAMILLE HAMBY 33:28 31:2910:47F85KGREENVILLE, SC
3641391BEN WALLACE 33:29 31:2910:48M375KGREENVILLE, SC
3651467SA'RAH JEFFERIES 33:30 32:5410:48F95K
3661241LAURA TEMPLES 33:30 32:4010:48F345KPIEDMONT, SC
3671448ABIGAIL BRADLEY-RIVERA 33:30 32:5510:48F95K
3681494CHARLOTTE TAYLOR 33:31 32:5510:48F255K
369895LINDSAY BRICK 33:36 31:5910:50F185KANDERSON, SC
3701252KENDRA TILLMAN 33:37 32:0210:50F365KSIMPSONVILLE, SC
371788HARPER GREER 33:40 33:2710:51F125KSCANSOURCEGREENVILLE, SC
3721191HANNAH RAYNES 33:41 33:2710:51F115KSIMPSONVILLE, SC
3731425SOPHIA OGAWA 33:43 33:2910:52F155KMICHELINEASLEY, SC
374956MARIE-LISETTE DIMITREW 33:44 32:2410:52F285KGREENVILLE, SC
375989SAMANTHA GARRETT 33:47 32:4210:53F175KWAXHAW, NC
376986JANA GARRETT 33:47 32:4310:53F455KWAXHAW, NC
377987MATT GARRETT 33:48 32:4410:54M445KWAXHAW, NC
3781160ELISA PAKKALA 33:48 32:5010:54F285KTAYLORS, SC
3791316MICHAEL ZIEMBA 33:49 31:5610:54M555KANDERSON, SC
380925MEGAN CHAPMAN 33:53 32:2610:55F325KSANDY SPRINGS
3811233LINDSAY STEVENS 33:53 32:0410:55F265KGREENWOOD, SC
3821220ISABEL SMITH 33:53 32:0510:55F265KMOORE, SC
3831244ELLA TETOR 33:55 33:0210:56F85KPICKENS, SC
3841207SARAH SCHWENZER 34:00 32:0210:58F395KGREENVILLE, SC
385599MICHELLE BRYAN 34:02 33:4510:58F555KDAY & ZIMMERMANNGREENVILLE, SC
3861112KRISTEN MARTIN 34:07 34:0211:00F475KGREENVILLE, SC
387877GEORGIA BIXLER 34:07 33:1711:00F345KSIMPSONVILLE, SC
388755CATI SPENCER 34:10 33:0611:01F335KMILLIKENGREER, SC
389629MATT DAVIDSON 34:10 32:4611:01M135KGEGREER, SC
3901471JAUNITA KERLEY 34:11 33:2011:01F195K
391731SHARON FREE 34:14 32:4711:02F605KMILLIKENCHESNEE, SC
392868JOHNNIE BENNETT 34:14 33:5111:02F625KASHEVILLE, NC
3931245HEATHER TETOR 34:18 33:2611:03F375KPICKENS, SC
3941321ED SMART 34:22 34:0311:05M595KCEDAR HILL, TX
395957JASON LOWE 34:25 34:1711:06M425KWESTMINSTER, CA
3961293HAYLEY WILLIAMS 34:26 32:4211:06F315KMYRTLE BEACH, SC
3971358LISA HOWES 34:28 33:3811:07F555KCLINTON, IA
3981383MEGHAN MCDONOUGH 34:28 33:4211:07F245KSIMPSONVILLE, SC
3991304WILLIAM WILSON 34:29 32:3811:07M495KZIRCONIA, NC
400934JESSI CORREA 34:29 32:3911:07F415KZIRCONIA, NC
401935JORGE CORREA 34:29 32:3911:07M425KZIRCONIA, NC
402722ROBIN BAYLES 34:30 33:3911:07F345KMILLIKENGREER, SC
4031301HELEN WILSON 34:30 32:3811:07F425KZIRCONIA, NC
404558KATHY TUCKER 34:31 33:5611:08F645KBMWGREER, SC
405813HEATHER PONCE 34:34 33:1311:09F325KSYNTERRA CORPORATIONSIMPSONVILLE, SC
406579EMELIE HEGARTY 34:39 33:0211:10F305KCITY OF GREENVILLEGREENVILLE, SC
4071034JERRETT HODGE 34:41 34:0411:11M145KGREENVILLE, SC
4081074JORI KELLY 34:42 34:1211:11F265KTAYLORS, SC
409729JACQUI FOSTER 34:43 33:1311:11F625KMILLIKENGREER, SC
4101159CAITLIN OWENS 34:46 32:5411:12F265KGREENVILLE, SC
411818ERIC GLADDEN 34:46 32:3611:12M355KTHE THREE E'SEASLEY, SC
4121170MEGHAN PHILP 34:52 33:1311:14F245KGREENVILLE, SC
413918CHARLES CARVER 34:53 34:2211:15M575KANDERSON, SC
414766NICOLE YESKE 34:53 33:1911:15F315KMILLIKENSPARTANBURG, SC
4151092HANNAH LASCOLA 34:54 33:2011:15F335KGREENVILLE, SC
416955LISETTE DIMITREW 35:01 33:4111:17F595KGREENVILLE, SC
417603SANDY DAUGHTRY 35:03 33:3711:18F555KDAY & ZIMMERMANNGREENVILLE, SC
418814THOMAS PONCE 35:04 33:4211:18M435KSYNTERRA CORPORATIONSIMPSONVILLE, SC
4191105COURTNEY LOWERY 35:05 34:4211:19F355KFLAT ROCK, NC
4201232TYLER STEPP 35:05 34:4211:19M85KFLAT ROCK, NC
421593CINDY COLLINS 35:05 34:3011:19F515KCRSINMAN, SC
4221106SEAN LOWERY 35:05 34:4111:19M355KFLAT ROCK, NC
4231061JOHN JOHNSON 35:07 34:2211:19M715KGREENVILLE, SC
4241250JOHN TIERNEY 35:08 34:3511:20M585KHENDERSONVILLE
4251452JENNIFER CERVANTES-MENDOZA 35:09 34:2011:20F115K
4261492SUSY FUN SIZEDSCHMALBECK 35:09 34:2111:20F255K
427906SHAWNA BRUCE 35:11 33:4811:20F265KCOLUMBIA, SC
4282851ELISA PAYAN 35:14 34:4911:21F145KKEMETSIMPSONVILLE, SC
429696HAYDEN TURNER 35:14 34:1411:21M225KKEMETSIMPSONVILLE, SC
4301377TONYA CASH 35:15 34:5411:22F405KBMWGREER, SC
431605ANGELA HECK 35:16 34:4211:22F345KDAY & ZIMMERMANNWOODRUFF, SC
432554KEVIN ROUNTREE 35:16 33:4111:22M425KBMWSIMPSONVILLE, SC
4331360RICHARD MAXWELL 35:17 32:2611:22M375KGREER, SC
434963LIAM DZURIS 35:20 33:2211:23M135KSIMPSONVILLE, SC
4351410VICTORIA WOODIE 35:20 34:5111:23F325KWELLFORD, SC
436608STEPHANIE HUNTER 35:22 33:5011:24F605KDAY & ZIMMERMANNTAYLORS, SC
437577JENNIFER PURUCKER 35:23 34:4011:24F235KCENTURY 3GREER, SC
4381099JANIS LEWIS 35:23 33:5511:24F545KFOUNTAIN INN, SC
4391202MICHAEL RUSSELL 35:23 33:1711:24M485KINDIAN TRAIL, NC
440665PAT KONSTANT 35:26 33:0311:25F615KGHSGREENVILLE, SC
4411412JENNY LEDTKE 35:32 35:2511:27F575KGREENVILLE, SC
442740MIKE LUKRIDGE 35:33 34:0311:28M615KMILLIKENMOORE, SC
443910ANDREA CABRERA 35:37 33:4211:29F345KANDERSON, SC
444596MANDA ELLIOTT 35:38 35:0211:29F325KCRSHENDERSONVILLE
4451188ALYSSA RAMSEY 35:38 34:1211:29F215KSIMPSONVILLE, SC
446563JENNY WESTBROOKS 35:39 34:5811:30F385KBMWGREENVILLE, SC
447745MEGHAN PATEL 35:42 33:1311:30F415KMILLIKENGREENVILLE, SC
448746PREM PATEL 35:43 33:1311:31M375KMILLIKENGREENVILLE, SC
449790MATTHEW JACKSON 35:45 34:4011:31M275KSCANSOURCEGREENVILLE, SC
450553ALLEN PELLETT 35:45 33:5611:31M515KBMWGREENVILLE, SC
451776KARI ALLEN 35:45 34:4211:31M265KSCANSOURCEGREENVILLE, SC
452661ABBY HOWLE 35:46 35:0111:32F115KGHSGREER, SC
453666CATHERINE MCQUAID 35:47 35:3011:32F405KGHSGREENVILLE, SC
4541151BAILEY NAYLOR 35:47 35:3911:32F255KEASLEY, SC
455616MISSY WINGARD 35:48 34:2211:32F505KDAY & ZIMMERMANNGREENVILLE, SC
456947DOROTHY DAVIDSON 35:49 34:5011:33F675KLANDRUM, SC
4571209RYLIE SHAW 35:55 35:1111:35F125KGREENVILLE, SC
4581228MALEA SPICER 35:59 34:3811:36F185KTRAVELERS REST
4591094MAURIE LAWRENCE 36:00 34:3111:36F415KGREENVILLE, SC
4601093HARRY LAWRENCE 36:00 34:3111:36M105KGREENVILLE, SC
461832SAMANTHA ALGARY 36:01 34:3411:37F245KGREENVILLE, SC
4621026CHASE HEATLEY 36:02 35:0911:37M75KGREENVILLE, SC
4631028TIM HEATLEY 36:02 35:0911:37M425KGREENVILLE, SC
4641400JEFF VERDIN 36:03 34:5011:37M435KGEGRAY COURT, SC
465931SUZANN COLLIER 36:08 35:5011:39F505KLINCOLNTON, GA
466750MARK RAGSDALE 36:13 34:4611:40M625KMILLIKENDUNCAN, SC
467749HALEY RAGSDALE 36:14 34:4511:41F305KMILLIKENDUNCAN, SC
468561MILA VILLANUEVA 36:15 36:0811:41F475KBMWSIMPSONVILLE, SC
469533CHARITY GRAY 36:16 34:4611:41F295KBMWSPARTANBURG, SC
4701096ANTHONY LE 36:17 35:2511:42M275KTAYLORS, SC
471835GRACE ALLEN 36:24 34:5711:44F215KSIMPSONVILLE, SC
4721069JONATHAN JUNEAU 36:24 34:5211:44M375KEASLEY, SC
4731283BRIELLE WEST 36:28 34:4911:45F145KCAMPOBELLO, SC
4741217DAISY SMITH 36:30 35:4311:46F285KCARLISLE, SC
4751104JOCELYN LOVELACE 36:30 35:4411:46F265KSIMPSONVILLE, SC
476602DAWNA DAUGHERTY 36:33 35:5611:47F435KDAY & ZIMMERMANNSIMPSONVILLE, SC
477709VALERIA DIAZ 36:34 35:3911:47F85KMICHELINSIMPSONVILLE, SC
478676ROBIN MILLER 36:34 35:0411:47F585KJOY REAL ESTATETAYLORS, SC
479515TIAUNA CAPEL 36:35 36:0011:48F125KBMWGREER, SC
4801137JAMES MONBECK 36:43 34:1811:50M555KSPARTANBURG, SC
4811012RICHARD GUSTAFSON 36:45 35:3211:51M465KGREER, SC
4821258JORDAN TROTTER 36:53 34:5111:53F275KPIEDMONT, SC
4831330JESSICA REID 36:56 36:4111:54F365KANDERSON, SC
4841176BECCA POPE 36:59 36:0111:55F345KTHORNTON, CO
485859RUSSELL BEACH 37:08 35:4411:58M685KSIMPSONVILLE, SC
4861178VIRGINIA POWELL 37:13 36:4212:00F595KGREERGREER, SC
487937SARAH COWLING 37:16 35:5712:01F245KGREENVILLE, SC
488705WILL YOUNTS 37:22 33:5912:03M325KMCMILLAN PAZDAN SMITHMAULDIN, SC
4891115JESSICA MATA 37:27 35:3612:04F275KMOORE, SC
490968KACEY EICHELBERGER 37:30 35:5412:05F405KGREENVILLE, SC
491967GARY EICHELBERGER 37:31 35:5412:06M465KGREENVILLE, SC
4921458BRIANNA EVANS 37:37 37:0312:08F225K
4931453LINDSEY CONNELLY 37:37 37:0412:08F235K
4941495ALONDRA VELAZQUEZ 37:37 37:0312:08F125K
495715BOYD ROBERTS 37:38 36:4812:08M405KMICHELINGREENVILLE, SC
496716IMOGEN ROBERTS 37:39 36:4712:08F115KMICHELINGREENVILLE, SC
497612ANDY THOMASON 37:39 37:0112:08M315KDAY & ZIMMERMANNSIMPSONVILLE, SC
4981302KRISTIN WILSON 37:44 37:1612:10F305KSIMPSONVILLE, SC
4991091AMANDA LARISON 37:44 37:0112:10F305KGREENVILLE, SC
5001225STEPHANIE SMITH 37:45 37:0212:10F275KGREENVILLE, SC
501680BRIAN MCMORROW 37:46 36:1112:10M595KJTEKT NORTH AMERICAMAULDIN, SC
5021205KIMBERLY SADRI 37:47 36:4012:11F345KPIEDMONT, SC
503850VANCE ARTHURS 37:48 36:2212:11M345KGREER, SC
504834GABBY ALLEN 37:50 36:0112:12F115KGREENVILLE, SC
505674ANGELA CRETEGNY 37:50 36:5512:12F485KJOY REAL ESTATEGREER, SC
506504CAROLYN ZIECINA 37:50 36:3712:12F385KAESOLUTIONSGREENVILLE, SC
507791JOEY MALAMUG 37:51 35:4812:12M375KSCANSOURCEMAULDIN, SC
5081015LUKE HALL 37:52 35:4612:12M345KPIEDMONT, SC
509539KIMBERLY KERL 38:00 36:4412:15F475KBMWGREER, SC
5101381TARA FARMER 38:01 36:4912:15F375KBOILING SPRINGS
5111123AARON MEDINA 38:06 37:4912:17M425KFOUNTAIN INN, SC
512794AMY PHARR 38:06 36:0212:17F505KSCANSOURCEGREENVILLE, SC
5131146DEAN MUENCH 38:07 36:1512:17M85KSIMPSONVILLE, SC
5141147KERRY MUENCH 38:08 36:1512:18F395KSIMPSONVILLE, SC
5151342BELLA MASTROPIETRO 38:09 37:4912:18F95KFLETCHER, NC
5161340MICHELLE GEISER 38:09 37:4912:18F345KBMWFLETCHER, NC
517842TARA ALLEN 38:09 36:4212:18F495KSIMPSONVILLE, SC
518633CARA KENNEY 38:10 37:4112:18F85KGESIMPSONVILLE, SC
519540MARVIN KERL 38:12 36:5612:19M485KBMWGREER, SC
520634JOHN KENNEY 38:12 37:4312:19M425KGESIMPSONVILLE, SC
5211183JILL PURCELL 38:14 37:3612:20F295KCARY, NC
5221041GINGER HOOVER 38:20 37:3712:21F495KTAYLORSVILLE, NC
5231036LAURA HODGES 38:24 36:5312:23F545KGREENVILLE, SC
524915KRISTINE CARANDANG 38:29 38:1012:24F405KGREENVILLE, SC
5251158ASHLEE OWENS 38:31 36:3012:25F335KEASLEY, SC
5261461BREYCEE GAMBLE 38:33 37:5812:26F115K
527557TRACY SCHUTTER 38:34 36:4512:26F395KBMWGREENVILLE, SC
528516MATT COX 38:35 38:0812:26M415KBMWANDERSON, SC
529837JUSTINE ALLEN 38:36 36:4612:27F505KGREENVILLE, SC
5301475LEXI LAMBERT 38:36 37:5912:27F285K
531702BENJAMIN CLAYTON 38:36 36:2712:27M275KMCMILLAN PAZDAN SMITHGREENVILLE, SC
532703MAKAYLA CLAYTON 38:37 36:2712:27F255KMCMILLAN PAZDAN SMITHGREENVILLE, SC
5331008SLOAN GREER 38:38 37:5312:27F85KSIMPSONVILLE, SC
5341006DAVID GREER 38:38 37:5412:27M415KSIMPSONVILLE, SC
5351007REEVES GREER 38:38 37:5612:27M75KSIMPSONVILLE, SC
5361122AARON MEDINA 38:39 38:2212:28M125KFOUNTAIN INN, SC
537559CATHALYN VAN DEUSEN 38:42 37:3612:29F285KBMWGREENVILLE, SC
5381173MANDY PIERCE 38:44 37:2112:29F265KCHARLOTTE, NC
5391037STEPHANIE HOELBLING 38:44 37:2212:29F265KGREER, SC
5401285BRODRICK WHITE 38:46 38:1512:30M125KGREER, SC
5411476WES LAMBERT 38:50 38:2212:31M285K
5421493ZACHARI SMITH 38:51 38:2212:31M115K
543664MAJOR HOWLE 38:56 38:1112:33M135KGHSGREER, SC
5441166KELLY PERMANENTE 38:57 38:3612:33F485KGREER, SC
5451496JAYDEN WOOTEN 39:00 38:1912:34M105K
5461156TIMOTHY OLMSTEAD 39:02 38:2312:35M505KGREER, SC
547744ADAM NEWBERRY 39:05 36:2312:36M355KMILLIKENGREER, SC
5481478TOMMY LOFTIS 39:05 38:2612:36M375K
5491460SHELBY FLINN 39:06 38:3012:36F275K
550765KENDYL WILLIAMS 39:09 37:5512:37F245KMILLIKENSPARTANBURG, SC
5511387ABBY GRACE CUMMINS 39:15 37:0612:39F105KBMWGREENVILLE, SC
552979ANDREW GAMMON 39:17 37:3112:40M75KGREENVILLE, SC
553980NADINE GAMMON 39:18 37:3112:40F355KGREENVILLE, SC
554830JENNA YOUNG 39:20 39:0512:41F235KTTIANDERSON, SC
5551260ALEXANDRIA VANBUREN 39:21 37:5812:41M285KSPARTANBURG, SC
5561380LAUREN AMELING 39:31 38:1312:44F375KGEGREENVILLE, SC
5571336S GREER 39:34 38:0612:45F515KGREENVILLE, SC
5581337E GREER 39:34 38:0512:45F135KGREENVILLE, SC
559891TRENT BOUTS 39:35 37:5412:46M555KGREER, SC
5601290DEBORAH WHITE BOUTS 39:35 37:5412:46F475KGREER, SC
5611303SKIP WILSON 39:39 39:1212:47M305KSIMPSONVILLE, SC
562762BEN TROGDON 39:41 38:2612:48M285KMILLIKENGREENVILLE, SC
5631072NICOLE KELLJCHEAIN 39:41 38:2612:48F315KGREENVILLE, SC
5641470KELSEY KABRIN 39:42 39:1712:48F275K
5651469DAVID KABRIN 39:42 39:1812:48M325K
5661353LINDSY DANISE 39:47 37:3012:50F295KGREENVILLE, SC
5672863YUSALET PAYAN 39:54 39:2712:52F395KKEMETSIMPSONVILLE, SC
5681177PENNY POTVIN 39:57 39:2012:53F555KINMAN, SC
5691030GIA HERRING 39:58 39:1912:53F385KFOUNTAIN INN, SC
5701357STEVE HOWES 39:58 39:1012:53M565KCLINTON, IA
5711327BARBARA JOHNSON 40:00 38:1012:54F535KSIMPSONVILLE, SC
572949ANDREA DAVIS 40:03 38:2312:55F265KGREENVILLE, SC
573958MELISSA DOMBROWSKI 40:06 38:4312:56F395KGREER, SC
574669STEVE STEWART 40:13 39:2812:58M485KGHSGREENVILLE, SC
5751076ANDREA KING 40:13 38:1612:58F295KTRAVELERS REST
5761249AUBIN TIERNEY 40:20 39:4713:00F285KGREENVILLE, SC
577914LAUREN CAMPBELL 40:20 38:2413:00F325KCENTRUY3WOODRUFF, SC
5781420EDUARDO TORRES 40:24 37:4613:01M425KMILLIKENGREER, SC
5791111SHANNON MARINO 40:27 39:0713:02F555KSIMPSONVILLE, SC
580774MARY WILKINS 40:31 38:0813:04F615KRIETERSPARTANBURG, SC
5811230BRAD STEHL 40:32 39:3313:04M425KGREENVILLE, SC
5821442MELVIN APOLONIO-ACOSTA 40:32 39:4913:04M105K
583849MARY ARTHURS 40:33 39:0813:04F295KGREER, SC
584919ERIKA CARVER 40:36 40:0613:05F125KANDERSON, SC
585645ANNE SULLIVAN 40:36 40:2413:05F615KGESIMPSONVILLE, SC
5861169GINGER PHILLIPS 40:44 39:0113:08F425KWOODRUFF, SC
587737KAREN KOCHANOWICZ 40:47 39:1613:09F555KMILLIKENSPARTANBURG, SC
5881065OLIVIA JONES 40:51 39:2413:10F135KSIMPSONVILLE, SC
5891426TERRY OGAWA 40:52 40:0013:10M475KMICHELINEASLEY, SC
590981TRESSA GANDY JONES 40:52 39:2713:10F415KSIMPSONVILLE, SC
591732CATHY HANDS 40:53 39:5213:11F485KMILLIKENSPARTANBURG, SC
592782WILL EDWARDS 40:53 39:2013:11M495KSCANSOURCEGREENVILLE, SC
5931042APRIL HOPKINS 41:05 40:4313:15F325KTAYLORS, SC
594815AMANDA ROWAN 41:06 39:1313:15F435KTEAM RWBHOPKINS, SC
5951083BROOKE KLEINFELTER 41:08 39:1613:16F375KGREENVILLE, SC
5961314JESSICA WRIGHT 41:15 39:2913:18F295KWELLFORD, SC
5971313JAKE WRIGHT 41:15 39:2913:18M285KWELLFORD, SC
5981179BRETT PRESCOTT 41:16 39:4913:18M315KGREENVILLE, SC
5991075MADELYN KELLY 41:18 39:2313:19F75KSIMPSONVILLE, SC
6001073AMY KELLY 41:19 39:2413:19F405KSIMPSONVILLE, SC
601793FARRELL MCTEER 41:20 40:2113:20F305KSCANSOURCESPARTANBURG, SC
602507BERNIE BARBER 41:25 40:3213:21M675KBMWMAULDIN, SC
6031348AMARI ARCHIBALD 41:30 41:1613:23F135KGREENVILLE, SC
6041356KATHRYN ETHRIDGE 41:31 40:1413:23F285KGREENVILLE, SC
6051033ALEXIS HODGE 41:32 40:5513:23F165KGREENVILLE, SC
606652KIERRA BAILEY 41:34 39:5413:24F115KGHSGREER, SC
607565ALFRED WINGATE 41:36 39:1013:25M625KBMWSPARTANBURG, SC
6081447DELORES BAUTISTA 41:46 41:0613:28F285K
6091465CARLA HUATO-GUZMAN 41:46 41:1113:28F105K
6101430ALICIA CRENSHAW 41:50 39:0113:29F465KSIMPSONVILLE, SC
611572MENG ZHOU-WANG 41:51 39:5813:30F615KBSHSGREENVILLE, SC
612893KIM BRADY 41:54 40:1113:30F595KSIMPSONVILLE, SC
6131021JOHN HARRIS 42:01 42:0113:33M355KGREENVILLE, SC
6141279TROY WATKINS 42:17 40:0113:38M495KGREENVILLE, SC
6151444URIEL APOLONIO-ACOSTA 42:17 41:4813:38M95K
6161277MADELYN WATKINS 42:17 40:0113:38F125KGREENVILLE, SC
6171404AVERY POWELL 42:27 40:1513:41F105KGREENVILLE, SC
6181402WILLIAM POWELL 42:28 40:1713:41M435KGREENVILLE, SC
619865KELLI BELANGER 42:28 40:3213:41F285KSENECA, SC
6201281CALEB WESMAN 42:57 42:2513:51M285KGREENVILLE, SC
621802JUDY MCCALLION 42:58 40:4313:51F505KSRHSGREER, SC
6221116DAWN MCGUIRE 42:59 41:1813:51F345KGREENWOOD, SC
6231103ROBERTO LOMELI 43:02 41:4413:52M485KCENTRAL, SC
6241227JONATHAN SORIANO 43:02 41:4313:52M55KCENTRAL, SC
6251218DEVON SMITH 43:03 42:3813:53F295KMAULDIN, SC
626697MOLLY TURNER 43:11 41:3213:55F165KKEMETSIMPSONVILLE, SC
6271282ZOE WESMAN 43:14 42:4413:56F285KGREENVILLE, SC
6281004HOLLY GREEN 43:15 40:4513:57F355KGREER, SC
629683EMMIE DEFUSCO 43:24 42:0814:00F305KKEMETGREENVILLE, SC
6301364DONNA ODOM 43:28 41:0114:01F365KGREER, SC
6311060DEBBIE JOHNSON 43:30 42:4814:01F585KNEWTON, NC
632839NATHAN ALLEN 43:37 41:4214:04M325KGREENVILLE, SC
6331145JENNIFER MORTON 43:45 43:3214:06F475KSIMPSONVILLE, SC
6341445JULIANA ARENOS-PUENTES 43:45 42:5614:06F115K
6351144HAYLEY MORTON 43:45 43:3314:06F115KSIMPSONVILLE, SC
6361484JONATHON PAGOADA 43:45 42:5614:06M115K
6371451JULIAN CANTRELL 43:55 43:1214:10M585K
6381446ELIZABETH BATSON 44:01 43:1214:11F265K
6391212AMANDA SISK 44:02 41:1314:12F365KGREENVILLE, SC
640892MILES BOWMAN 44:05 42:3614:13M425KEASLEY, SC
6411384DEBBIE MCDONOUGH 44:05 43:0814:13F595KSIMPSONVILLE, SC
6421382MICHAEL MCDONOUGH 44:06 43:0814:13M605KSIMPSONVILLE, SC
6431180KRISTIN PRESCOTT 44:18 42:5114:17F335KGREENVILLE, SC
644843BRANDY ALTMAN 44:20 42:2414:18F305KCANDLER, NC
645775JASON ZDYB 44:22 41:5714:18M365KRIETERSPARTANBURG, SC
646651CANDACE BAILEY 44:34 42:5514:22F315KGHSGREER, SC
647970ASHLYN EVANS 44:35 42:2614:22F245KGREENVILLE, SC
648900KARA BROOME 44:39 43:2814:24F75KGREER, SC
649841STEVE ALLEN 44:39 42:5014:24M595KGREENVILLE, SC
650901SCOTT BROOME 44:40 43:2914:24M385KGREER, SC
651531MARY GLENN 44:43 44:3614:25F405KBMWGREENVILLE, SC
652899FELICIA BROOME 44:43 43:3214:25F375KGREER, SC
653636TRISHA KRISHNAKUMAR 44:44 44:2114:25F75KGEGREENVILLE, SC
654635POORNA KRISHNAKUMAR 44:46 44:2314:26M405KGEGREENVILLE, SC
6551109PHILIP MAREK 44:56 43:0114:29M275KBOILING SPRINGS
656909TINESHA BURR 44:57 44:2214:30F355KHENDERSONVILLE
6571068AVION JOY 44:57 44:2414:30M315KGREENVILLE, SC
6581213JANE SITZE 45:02 42:4914:31F685KGREENVILLE, SC
6591130DON MINTZ 45:05 43:0614:32M615KGREER, SC
6601261JENNY VANBUREN 45:11 43:4714:34M335KSPARTANBURG, SC
6611485ANA REYES 45:14 44:4514:35F125K
6621162JASON PARKER 45:15 43:1914:35M355KGREENVILLE, SC
6631161ELLA PARKER 45:16 43:1914:36F75KGREENVILLE, SC
6641335KIONNA CORWIN 45:17 43:4614:36F185KDALLAS, GA
665880RICHARD BLALOCK 45:18 42:3914:36M265KSPARTANBURG, SC
6661029GENEVIEVE HERNANDEZ 45:21 43:3714:37F125KGREENVILLE, SC
6671265ELIJAH VAZQUEZ 45:21 45:0414:37M225KGREENVILLE, SC
668898EMILY BROESCH 45:22 45:0414:38F245KGREENVILLE, SC
6691070DEBBIE KAHL 45:24 43:3314:38F555KFOUNTAIN INN, SC
670978JONATHAN FRIEDLAND 45:26 43:2014:39M335KGREENVILLE, SC
671971ANNE FAGAN 45:26 44:2714:39F645KGREENVILLE, SC
672977HOLLY FRIEDLAND 45:26 43:2014:39F395KGREENVILLE, SC
6731267TERESA WALK 45:26 45:0514:39F495KFOUNTAIN INN, SC
674858DONNIE BAYNE 45:34 44:0314:41F715KMAULDIN, SC
6751385JESSICA KINGERY 45:39 43:4114:43F335KELGIN, SC
6761403KERI POWELL 45:41 43:2914:44F425KGREENVILLE, SC
677943STEPHANIE CUFFEL 45:47 44:1414:46F135KPIEDMONT, SC
6781135TEENA MITCHELL 45:58 44:2614:49F525KDALLAS, GA
6791134GLENDA MITCHELL 45:59 44:2814:50F385KDALLAS, GA
680819AMANDA BURTON 46:04 44:3114:51F515KTTIIVA, SC
6811288ROBERT WHITE 46:06 43:3514:52M565KSIMPSONVILLE, SC
6821449ERNEST BURGESS 46:07 45:2214:52M465K
6831167LOUIS PERMANENTE 46:13 45:5314:54M485KGREER, SC
6841084CHAD KNIGHT 46:17 43:5214:55M405KSPARTANBURG, SC
6851354ROBERT DANISE 46:19 43:5814:56M295KGREENVILLE, SC
6861334SHAYNE MITCHELL 46:23 44:5114:57M585KDALLAS, GA
6871371GABRIELE HARRIS 46:35 44:3515:01F565KBMWSIMPSONVILLE, SC
6881427SANDY MURDOCK 46:36 44:3615:01F525KBMWPIEDMONT, SC
689852BARB BAJT 46:36 45:2615:01F535KFOUNTAIN INNOU
690600JEAN CARTEE 46:37 45:1315:02F635KDAY & ZIMMERMANNGREER, SC
691993JESSIE GAUGHAN 46:44 44:4115:04F255KGREENWOOD, SC
6921259CHARLOTTE TUCKER 46:51 45:1815:06F375KPIEDMONT, SC
693942ALICIA CUFFEL 46:51 45:1815:06F175KPIEDMONT, SC
694730MICHAEL FREE 46:56 45:3115:08M605KMILLIKENCHESNEE, SC
6951305CARRIE WINESETT 47:04 44:3315:10F295KSIMPSONVILLE, SC
6961278MILES WATKINS 47:08 44:5115:12M55KGREENVILLE, SC
6971276LYNN WATKINS 47:08 44:5015:12F465KGREENVILLE, SC
698546KATHERINE MCCAIN 47:11 45:1615:13F185KBMWGREENVILLE, SC
6991136WILL MITCHELL 47:18 46:2915:15M155KDALLAS, GA
7001419CRISTINA ACEVEDO 47:21 45:4615:16F415KMILLIKENGREER, SC
701501LAUREN CALDWELL 47:22 44:5415:16F335KAESOLUTIONSTAYLORS, SC
702544CHERIE MCCAIN 47:31 45:3415:19F525KBMWGREENVILLE, SC
703972GREG FARLER 47:31 46:4815:19M575KSIMPSONVILLE, SC
7041287PATTY WHITE 47:34 46:1415:20F635KGAFFNEY, SC
7051131STACEY MINTZ 47:35 45:3615:20F565KGREER, SC
706675PAM MCCOY 47:38 46:4315:21F525KJOY REAL ESTATEFOUNTAIN INN, SC
707646MIKE SULLIVAN 47:39 46:4615:22M605KGESIMPSONVILLE, SC
708673JOY BAILEY 47:39 46:4315:22F725KJOY REAL ESTATEGREENVILLE, SC
7091199CAMDEN ROBINSON 47:42 45:5315:23M65KTAYLORS, SC
7101018GRAHAM HARGITT 47:43 45:5415:23M65KTAYLORS, SC
7111019LISA HARGITT 47:46 45:5715:24F365KTAYLORS, SC
712903JENNIFER BROWN 47:46 45:1915:24F385KANDERSON, SC
713940KATHERINE CROUCH 47:46 46:0815:24F255KCOLUMBIA, SC
714999SALLY GOOD 47:47 45:1915:24F295KGREENVILLE, SC
7151221LAURIE SMITH 47:54 46:1315:27F585KGREENVILLE, SC
7161222MATTHEW SMITH 47:58 46:1715:28M575KGREENVILLE, SC
717606JACK HOWLE 48:12 47:2315:32M405KDAY & ZIMMERMANNGREER, SC
718662ANNE MYERS HOWLE 48:13 47:2515:33F115KGHSGREER, SC
719621DONNA HERTLING 48:14 46:3515:33F675KFLUORGREENVILLE, SC
7201322KIM SMART 48:17 46:3015:34F565KCEDAR HILL, TX
7211142SARAH MORRIS 48:23 46:5615:36F145KSIMPSONVILLE, SC
722848JULIA ARNETT 48:24 46:5615:36F145KSIMPSONVILLE, SC
7231059DEBBIE JOHNSON 48:42 48:4215:42F605KPIEDMONT, SC
7241031KATHERINE HEUGEL 48:43 46:4715:42F325KGREENVILLE, SC
725796MEGGIE GADDI 48:43 46:4415:42F455KSEALED AIRGREENVILLE, SC
7261062MICHELLE JOHNSON 48:44 48:4415:43F265KGREENVILLE, SC
7271486BELEN REYES-CRUZ 48:51 48:2115:45F115K
7281488SHANNON RIVERA 48:52 48:2115:45F315K
729926JULIE CHIAPPINI 49:03 46:1815:49F305KGREENVILLE, SC
730879CALLIE BLALOCK 49:13 46:3715:52F265KSPARTANBURG, SC
731797BETTE VOLK 49:15 47:1415:53F575KSEALED AIRGREER, SC
7321386MISSY CUMMINS 49:19 47:3015:54F505KBMWGREENVILLE, SC
7331280MIMI WEBB 49:29 47:5815:57F405KSIMPSONVILLE, SC
7341362JOHN JONES 49:41 47:2816:01M485KANDERSON, SC
7351363KIM JONES 49:42 47:2916:01F475KANDERSON, SC
736601BOBBY CHANDLER 49:43 48:3016:02M815KDAY & ZIMMERMANNGREENVILLE, SC
737658SANDRA EDWARDS 50:04 48:2416:09F525KGHSGREER, SC
738654HALEY BURTON 50:07 47:4216:10F205KGHSTRAVELERS REST
739655TAMMY BURTON 50:09 47:4216:10F495KGHSTRAVELERS REST
7401200LESLIE ROGERS 50:23 49:4616:15F355KGREER, SC
741604LAUREN HALL 50:23 49:4616:15F305KDAY & ZIMMERMANNGREENVILLE, SC
7421428DIANA GOMEZ-LOPEZ 50:32 48:5516:18F315KGREER, SC
743733CHARLIE KIMSEY 50:34 49:3616:18F75KMILLIKENSPARTANBURG, SC
744734JAIME KIMSEY 50:36 49:3916:19F415KMILLIKENSPARTANBURG, SC
745677FRANK STARNES 50:38 48:0216:20M575KJOY REAL ESTATESPARTANBURG, SC
7461474ELIZABETH KOONTZ 50:44 49:4416:21F485K
747547KAREN MCDOWELL 50:44 48:3816:21F585KBMWLYMAN, SC
7481487DONNA RICH 50:45 49:3816:22F315K
749799ASHLEY SHUFORD 50:46 47:5916:22F315KSHUFORDGREER, SC
7501482BRANDI MORRISON 50:50 50:0016:23F255K
751864KIRSTEN BEESLEY 50:53 49:2416:24F565KGREER, SC
7521128CHARLEY MILLER 51:01 48:4616:27F215KEASLEY, SC
753941BRIANNA CROWE 51:01 48:4616:27F215KEASLEY, SC
754598BRITTANY STOLTZFUS 51:06 48:1116:29F265KCRSSPARTANBURG, SC
755592JENNIFER CANFIELD 51:08 48:1216:29F405KCRSGREENVILLE, SC
756781BETH EDWARDS 51:11 49:3716:30F455KSCANSOURCEGREENVILLE, SC
757920ERIN CARVER 51:37 51:0516:39F95KANDERSON, SC
758904LEE ANN BROWN 51:40 50:0316:40F615KGREENVILLE, SC
759811REBECCA BASS 51:42 49:4316:40F415KSYNTERRA CORPORATIONGREENVILLE, SC
760810MICHAEL BASS 51:42 49:4416:40M445KSYNTERRA CORPORATIONGREENVILLE, SC
761921JULIE CARVER 51:46 51:1516:41F485KANDERSON, SC
762930CHANDLER COLLIER 51:51 51:3316:43M195KLINCOLNTON, GA
763982SUSAN GARMENDIA 51:52 50:4816:43F365KEASLEY, SC
7641108ASHLEY MANLEY 51:52 50:4816:43F335KEASLEY, SC
765768ANDREA BINDER 52:05 49:4116:48F495KRIETERSPARTANBURG, SC
766769GUENTHER BINDER 52:05 49:4116:48M605KRIETERSPARTANBURG, SC
767548KATE MEDINA 52:10 47:5516:49F365KBMWHENDERSONVILLE
768537LES HUBBARD 52:11 47:5516:50M395KBMWHENDERSONVILLE
7691450CASSANDRA BURGESS 52:13 51:2816:50F315K
7701497DIANE KERLEY 52:16 51:2516:51F385KGREENVILLE, SC
7711224SHEA SMITH 52:18 49:3616:52F425KSIMPSONVILLE, SC
7721464CRISTINA GUZMAN 52:21 51:4416:53F995K
773747JULIE PETRI 52:24 49:5216:54F385KMILLIKENSIMPSONVILLE, SC
774513DONNA BROWN 52:37 50:5216:58F555KBMWFOUNTAIN INN, SC
775511SHEILA BLACKWELL 52:37 50:5016:58F545KBMWMOORE, SC
776965ASHLEY EGGL 52:39 50:0416:59F335KGREENVILLE, SC
777966CARLA EGGL 52:41 50:0516:59F625KGREENVILLE, SC
778594JUSTIN DILLINGER 52:48 52:1017:01M255KCRSDUNCAN, SC
779597DANIELLE KELLER 52:49 52:1117:02F275KCRSDUNCAN, SC
7801014APRIL HALL 52:52 51:0317:03F395KEASLEY, SC
781798RENEE RICKER 52:57 49:3617:04F615KSHUFORDEASLEY, SC
7821138JODI MONOPOLI 53:07 50:4017:08F375KLYMAN, SC
783973APRIL FERGUSON 53:23 51:4517:13F515KTAYLORS, SC
7841005NIK GREENE 53:53 51:4617:22M365KSIMPSONVILLE, SC
7852858DAVID WOODS 53:53 51:4617:22M525K
786583JOHN HANSEN 53:58 51:3717:24M475KCRAIG GAULDEN DAVISGREENVILLE, SC
7872860CATHERINE HANSEN 53:59 51:3817:24F125K
788610STEPHANIE THOMAS 54:06 52:4417:27F195KDAY & ZIMMERMANNTRAVELERS REST
789611VICTORIA THOMAS 54:08 52:4817:27F465KDAY & ZIMMERMANNTRAVELERS REST
790758MICHAEL STEVENSON 54:18 51:4317:30M285KMILLIKENLYMAN, SC
791757BRITTANY STEVENSON 54:19 51:4417:31F285KMILLIKENLYMAN, SC
7921231JENNIFER STEHL 54:35 52:0117:36F325KGREENVILLE, SC
7931079GEORGIA KING 54:38 52:0917:37F265KSIMPSONVILLE, SC
7941255SPARKLE TOLAND 54:44 52:1417:39F395KENOREE, SC
795659JENNIFER HILSON 54:59 53:1617:44F495KGHSGREER, SC
796936BRENDA COTHRAN 55:01 53:1917:44F455KCAMPOBELLO, SC
7971263LILLIE VASSAR 55:01 52:5417:44F95KANDERSON, SC
7981262CHRIS VASSAR 55:04 52:5917:45M505KANDERSON, SC
7991328CAROLE ABUMOUSSA 55:07 53:5017:46F265KGREER, SC
8001264PENNY VASSAR 55:15 53:1117:49F505KANDERSON, SC
801885GORDON BOONE IV 55:16 52:4217:49M105KANDERSON, SC
8021032ANNIE HINNER 55:17 53:3317:50F315KGREER, SC
8031097ASHLEE LEOPARD 55:18 53:3417:50F295KSIMPSONVILLE, SC
804916JESSE CARL 55:19 53:3517:50M235KGREENVILLE, SC
805995NICOLE GEIGER 55:21 52:5617:51F355KLYMAN, SC
806994KAYLEIGH GEIGER 55:21 52:5717:51F105KLYMAN, SC
807847NANCY APY 55:21 54:2017:51F615KGREENVILLE, SC
808846MICHAEL APY 55:22 54:2017:51M635KGREENVILLE, SC
8091298AMY WILSON 55:22 53:3917:51F325KGREENVILLE, SC
8101153CYNTHIA NIMMONS 55:27 53:4517:53F375KSIMPSONVILLE, SC
811884KATHERINE BOONE 55:31 52:5817:54F85KANDERSON, SC
812883GORDON BOONE 55:31 52:5717:54M405KCENTRAL, SC
813929CHRISTINE COLAS 55:31 53:0017:54F395KANDERSON, SC
8141273JAKE WARWICK 55:55 55:2518:02M315KGREENVILLE, SC
8151272CARRIE WARWICK 55:57 55:2618:02F355KGREENVILLE, SC
8161274SALLY WARWICK 55:57 55:2618:02F605KGREENVILLE, SC
8171429SARAI ARANA 55:59 54:0218:03F415KGREENVILLE, SC
8181311SYDNEY WITBECK 56:02 53:0618:04F145KSIMPSONVILLE, SC
8191308CAROLINE WITBECK 56:04 53:0618:05F445KSIMPSONVILLE, SC
8201310NATALIE WITBECK 56:05 53:0918:05F135KSIMPSONVILLE, SC
821823SARAH GREGORICH 56:22 53:2018:10F305KTTIEASLEY, SC
8221127ELIZABETH MIGLIONICO 56:43 55:5618:17F575KTAYLORS, SC
8231300DEBBIE WILSON 56:44 55:5618:18F525KTAYLORS, SC
8241248KELLY THORFINNSSON 56:45 55:5618:18F355KGREER, SC
825724CHRIS BURRELL 56:57 54:1618:22F645KMILLIKENINMAN, SC
826743TIFFANY MOORE 56:59 54:1718:22F345KMILLIKENINMAN, SC
8271184JEANNIE PUTNAM 56:59 54:2818:22F335KSIMPSONVILLE, SC
8281185RON PUTNAM 57:01 54:3018:23M345KSIMPSONVILLE, SC
8291315LYNN ZIEMBA 57:06 55:1318:25F585KANDERSON, SC
830525CASSANDRA FORMA 58:02 57:0318:43F475KBMWWOODRUFF, SC
831831GENA ACREE 58:02 57:0018:43F525KEASLEY, SC
8321133DAVID MITCHELL 59:48 57:2819:17M95KDALLAS, GA
833586SCOTT SIMMONS01:00:1700:58:1319:26M565KCRAIG GAULDEN DAVISGREENVILLE, SC
834589LUKE WILSON01:00:1700:58:0819:26M295KCRAIG GAULDEN DAVISGREENVILLE, SC
835587SUSAN SIMMONS01:00:1700:58:1519:26F625KCRAIG GAULDEN DAVISGREENVILLE, SC
836590REBECCA WILSON01:00:1700:58:1019:26F285KCRAIG GAULDEN DAVISGREENVILLE, SC
8371100KRIS LILLIBRIDGE01:00:1900:58:1719:27M505KGREENVILLE, SC
8381101LISA LILLIBRIDGE01:00:2100:58:1919:28F465KGREENVILLE, SC
8391295RYAN HEATH WILLIAMS01:00:5800:59:1219:40M325KMYRTLE BEACH, SC
840526CAROLINE FORREST01:01:2200:59:1419:47F525KBMWSIMPSONVILLE, SC
8411312SHENNON WOFFORD01:01:2601:00:4519:49F485KGREER, SC
8421071PATRICIA KELLEY01:01:2701:00:4419:49F535KMAYO, SC
843521ALEC FINE01:01:5701:00:0119:59M55KBMWBOILING SPRINGS
844522BETHANY FINE01:02:0001:00:0520:00F445KBMWBOILING SPRINGS
845523TONY FINE01:02:0301:00:0720:00M435KBMWBOILING SPRINGS
846607BILLY HUNTER01:03:1601:01:4320:24M785KDAY & ZIMMERMANNCLEVELAND, SC
847933HEATHER CONSTANCE01:03:3100:59:1320:29F305KJOANNA, SC
8481229JESSICA STEADMAN01:03:3300:59:1520:30F295KROEBUCK, SC
8491393KAITLYN MARINO01:03:4601:02:2620:34F295KGREENVILLE, SC
8501110LINDSAY MARINO01:03:5001:02:2920:35F275KSIMPSONVILLE, SC
8511284MAUREEN WEST01:04:1101:04:1120:42F345KGREENVILLE, SC
852887SHEILA BOTKIN01:04:1301:01:5320:42F555KDALLAS, GA
853886ALLEN BOTKIN01:04:1401:01:5520:43M565KDALLAS, GA
854753WANDA SMITH01:05:2801:02:4321:07F355KMILLIKENBUFFALO, SC
855840SANDY ALLEN01:05:3201:03:1421:08F625KSIMPSONVILLE, SC
856836HEATHER ALLEN01:05:3501:03:1821:09F325KSIMPSONVILLE, SC
8571155ANDREA OGLESBY01:05:3601:03:2821:09F275KGREENVILLE, SC
8582859NADINE CRADDOCK01:05:3601:03:2821:09F685K
8591022KAYLA HARRIS01:05:4101:03:2621:11F275KGREENVILLE, SC
860917KAYE CARTEE01:05:4401:03:2921:12F565KGREENVILLE, SC
8611473JAY KERLEY01:05:4901:04:5921:13M105K
862959ASHLEY DOTEN01:06:1101:04:0621:20F345KSIMPSONVILLE, SC
8631242KIM TERBEEK01:06:1501:04:1321:22F525KBELTON, SC
864944MARILYN DABNEY01:06:1501:04:0721:22F325KANDERSON, SC
865875CARLA BILLINGS01:06:1601:04:1421:22F525KDONALDS, SC
8661190MARY RAYCROFT01:06:1601:03:4321:22F235KMOUNT PLEASANT
8671257KRISTINA TONEY01:06:1701:03:4421:22F225KGREENVILLE, SC
8681189CAROLINA RAYCROFT01:06:1901:03:4621:23F265KPIEDMONT, SC
869908MEGAN BURKE01:06:5001:05:2521:33F325KTAYLORS, SC
8701239SALLY TAYLOR01:06:5101:05:2721:33F315KSIMPSONVILLE, SC
8711121ZANE MEADORS01:08:0401:08:0421:57M485KGREENVILLE, SC
872502BRITTANY LAMPSON01:08:1301:05:4522:00F325KAESOLUTIONSGREENVILLE, SC
8731457JOHN MARTIN01:11:4601:11:0023:09M505K